Weather reports worldwide

Advertisment
St. Mary's, United Kingdom (3803): temperature & dewpoint: 19.09.2018 22:00:00 - 25.09.2018 22:00:00 (BST)St. Mary's, United Kingdom (3803): temperature -20cm: 19.09.2018 22:00:00 - 25.09.2018 22:00:00 (BST)St. Mary's, United Kingdom (3803): wind speed & gusts: 19.09.2018 22:00:00 - 25.09.2018 22:00:00 (BST)St. Mary's, United Kingdom (3803): wind direction: 19.09.2018 22:00:00 - 25.09.2018 22:00:00 (BST)St. Mary's, United Kingdom (3803): reduced air pressure: 19.09.2018 22:00:00 - 25.09.2018 22:00:00 (BST)St. Mary's, United Kingdom (3803): visibility: 19.09.2018 22:00:00 - 25.09.2018 22:00:00 (BST)St. Mary's, United Kingdom (3803): precipitation: 19.09.2018 22:00:00 - 25.09.2018 22:00:00 (BST)
Date & Time tt [°C] td [°C] tt -20cm [°C] ff [km/h] ff [kn] fx [km/h] fx [kn] dd ppp [hPa] vv [km] rr [mm]
25.09.2018 22:00:00 12,6 8,3 - 11 6 - - SE 1034,7 50 0,0
25.09.2018 21:00:00 12,5 8,2 - 11 6 - - SSE 1034,7 45 0,0
25.09.2018 20:00:00 12,4 8,1 - 15 8 - - SSE 1034,6 50 0,0
25.09.2018 19:00:00 13,6 8,4 - 18 10 - - SSE 1034,4 50 0,0
25.09.2018 18:00:00 14,7 8,2 - 21 11 - - SSE 1034,5 10 0,0
25.09.2018 17:00:00 15,7 8,5 - 18 10 - - SSE 1034,9 10 0,0
25.09.2018 16:00:00 16,2 9,4 - 18 10 - - SSE 1035,4 40 0,0
25.09.2018 15:00:00 16,3 9,6 - 21 11 - - SSE 1035,8 10 0,0
25.09.2018 14:00:00 16,7 10,1 - 21 11 - - SSE 1036,2 10 0,0
25.09.2018 13:00:00 16,3 9,4 - 22 12 - - SSE 1036,5 10 0,0
25.09.2018 12:00:00 16,4 10,4 - 22 12 - - SSE 1036,6 10 0,0
25.09.2018 11:00:00 15,5 8,9 - 22 12 - - SSE 1036,9 40 0,0
25.09.2018 10:00:00 14,2 8,6 14,4 22 12 - - SSE 1036,8 10 0,0
25.09.2018 09:00:00 13,2 8,3 - 18 10 - - SSE 1037,0 10 0,0
25.09.2018 08:00:00 12,1 7,4 - 18 10 - - SE 1037,0 10 0,0
25.09.2018 07:00:00 12,1 7,0 - 13 7 - - SE 1036,8 50 0,0
25.09.2018 06:00:00 11,5 6,9 - 15 8 - - SSE 1036,8 50 0,0
25.09.2018 05:00:00 11,6 7,3 - 21 11 - - SSE 1036,8 50 0,0
25.09.2018 04:00:00 11,6 8,2 - 15 8 - - E 1037,2 50 0,0
25.09.2018 03:00:00 11,6 6,2 - 11 6 - - E 1038,0 35 0,0
25.09.2018 02:00:00 11,3 6,8 - 11 6 - - E 1038,3 40 0,0
25.09.2018 01:00:00 11,2 6,9 - 13 7 - - E 1038,6 40 0,0
25.09.2018 00:00:00 11,4 6,2 - 15 8 - - ENE 1038,7 50 0,0
24.09.2018 23:00:00 11,5 6,9 - 15 8 - - E 1038,5 50 0,0
24.09.2018 22:00:00 11,0 6,7 - 11 6 - - NE 1039,1 50 0,0
24.09.2018 21:00:00 11,6 7,2 - 15 8 - - ENE 1038,6 50 0,0
24.09.2018 20:00:00 11,4 7,6 - 11 6 - - ENE 1038,6 50 0,0
24.09.2018 19:00:00 12,8 7,5 - 8 4 - - NE 1038,4 50 0,0
24.09.2018 18:00:00 13,7 7,5 - 8 4 - - ENE 1038,7 10 0,0
24.09.2018 17:00:00 14,3 7,1 - 8 4 - - E 1039,1 10 0,0
24.09.2018 16:00:00 14,2 6,7 - 8 4 - - E 1039,6 10 0,0
24.09.2018 15:00:00 14,8 7,3 - 9 5 - - ESE 1039,6 10 0,0
24.09.2018 14:00:00 15,0 8,2 - 8 4 - - ESE 1039,8 10 0,0
24.09.2018 13:00:00 15,0 7,9 - 15 8 - - NE 1039,8 35 0,0
24.09.2018 12:00:00 14,9 7,6 - 15 8 - - NE 1040,0 10 0,0
24.09.2018 11:00:00 14,0 8,0 - 16 9 - - NNE 1039,8 10 0,0
24.09.2018 10:00:00 13,8 7,6 14,5 15 8 - - NE 1039,4 10 0,0
24.09.2018 09:00:00 13,2 8,0 - 11 6 - - NE 1039,0 10 0,0
24.09.2018 08:00:00 10,8 7,3 - 11 6 - - NNE 1038,6 10 0,0
24.09.2018 07:00:00 10,9 6,8 - 11 6 - - N 1038,1 50 0,0
24.09.2018 06:00:00 11,2 6,9 - 13 7 - - N 1037,8 50 0,0
24.09.2018 05:00:00 11,4 6,6 - 13 7 - - N 1037,4 50 0,0
24.09.2018 04:00:00 11,7 6,6 - 15 8 - - NNE 1037,2 50 0,0
24.09.2018 03:00:00 12,2 6,7 - 15 8 - - N 1037,0 50 0,0
24.09.2018 02:00:00 11,8 6,1 - 13 7 - - N 1036,7 50 0,0
24.09.2018 01:00:00 11,8 6,0 - 15 8 - - N 1036,5 45 0,0
24.09.2018 00:00:00 12,2 5,8 - 21 11 - - N 1035,7 50 0,0
23.09.2018 23:00:00 12,3 5,3 - 16 9 - - N 1035,3 50 0,0
23.09.2018 22:00:00 12,4 5,5 - 22 12 - - N 1034,5 45 0,0
23.09.2018 21:00:00 12,3 5,3 - 24 13 - - N 1033,6 50 0,0
23.09.2018 20:00:00 12,4 4,9 - 26 14 - - N 1032,6 50 0,0
23.09.2018 19:00:00 12,5 4,9 - 29 16 48 26 N 1031,1 50 0,0
23.09.2018 18:00:00 13,1 5,8 - 34 18 52 28 N 1030,1 45 0,0
23.09.2018 17:00:00 12,8 6,1 - 31 17 50 27 N 1029,4 40 0,0
23.09.2018 16:00:00 13,5 6,0 - 35 19 54 29 N 1028,5 40 0,0
23.09.2018 15:00:00 13,7 6,1 - 35 19 52 28 N 1027,7 40 0,0
23.09.2018 14:00:00 13,9 7,4 - 35 19 52 28 N 1026,9 28 0,0
23.09.2018 13:00:00 14,0 8,1 - 31 17 57 31 N 1025,3 30 0,0
23.09.2018 12:00:00 13,4 7,5 - 35 19 59 32 N 1023,4 45 0,0
23.09.2018 11:00:00 12,7 9,1 - 42 23 70 38 N 1021,8 25 0,0
23.09.2018 10:00:00 11,5 9,8 15,7 46 25 65 35 N 1020,8 6 0,8
23.09.2018 09:00:00 12,6 10,2 - 35 19 48 26 N 1018,6 35 0,0
23.09.2018 08:00:00 12,2 11,2 - 29 16 46 25 N 1015,8 30 0,0
23.09.2018 07:00:00 12,0 11,7 - 31 17 48 26 N 1015,9 8 1,0
23.09.2018 06:00:00 12,6 12,3 - 26 14 - - N 1014,3 4,4 0,2
23.09.2018 05:00:00 12,9 12,7 - 24 13 - - NNE 1013,9 3,7 0,8
23.09.2018 04:00:00 13,1 12,9 - 16 9 - - NNE 1013,4 3,9 0,0
23.09.2018 03:00:00 13,4 12,9 - 15 8 - - NNE 1013,8 8 0,0
23.09.2018 02:00:00 13,5 13,0 - 16 9 - - NNE 1013,9 50 0,0
23.09.2018 01:00:00 13,3 13,1 - 15 8 - - NNE 1013,6 30 0,0
23.09.2018 00:00:00 13,4 13,4 - 15 8 - - N 1013,4 26 0,0
22.09.2018 23:00:00 13,6 13,6 - 15 8 - - N 1013,1 17 0,2
22.09.2018 22:00:00 14,1 14,1 - 11 6 - - N 1012,3 15 0,0
22.09.2018 21:00:00 14,6 14,6 - 13 7 - - NNW 1011,8 3,3 0,0
22.09.2018 20:00:00 15,1 15,1 - 15 8 50 27 WNW 1010,8 0,4 0,2
22.09.2018 19:00:00 16,6 16,6 - 39 21 54 29 WSW 1009,6 1,0 0,0
22.09.2018 18:00:00 16,8 16,8 - 35 19 54 29 WSW 1009,2 1,7 0,0
22.09.2018 17:00:00 16,8 16,8 - 37 20 55 30 WSW 1008,7 1,3 0,0
22.09.2018 16:00:00 16,9 16,8 - 42 23 63 34 WSW 1008,8 1,5 0,0
22.09.2018 15:00:00 17,0 17,0 - 44 24 63 34 WSW 1008,3 2,5 0,2
22.09.2018 14:00:00 17,0 17,0 - 42 23 55 30 WSW 1008,3 2,0 0,4
22.09.2018 13:00:00 16,5 16,5 - 29 16 50 27 SSW 1008,4 0,5 2,8
22.09.2018 12:00:00 13,9 13,8 - 41 22 68 37 SSE 1010,1 1,8 2,8
22.09.2018 11:00:00 13,1 12,8 - 46 25 59 32 SE 1011,4 3,5 1,4
22.09.2018 10:00:00 11,9 11,5 15,2 39 21 52 28 ESE 1013,6 1,8 2,4
22.09.2018 09:00:00 11,5 11,1 - 31 17 - - SE 1015,5 3,0 3,4
22.09.2018 08:00:00 11,4 11,0 - 31 17 - - S 1016,9 3,0 1,4
22.09.2018 07:00:00 10,3 9,4 - 4 2 - - ESE 1018,5 6 3,6
22.09.2018 06:00:00 12,2 9,0 - 15 8 - - SSW 1018,6 11 0,8
22.09.2018 05:00:00 12,8 10,6 - 18 10 - - SSW 1019,2 19 0,8
22.09.2018 04:00:00 12,3 10,2 - 9 5 - - W 1019,8 17 0,4
22.09.2018 03:00:00 13,7 10,2 - 11 6 - - SW 1020,6 16 0,0
22.09.2018 02:00:00 13,8 10,3 - 13 7 - - SW 1021,0 23 0,0
22.09.2018 01:00:00 13,4 9,8 - 9 5 - - WSW 1020,7 17 0,0
22.09.2018 00:00:00 13,8 9,5 - 13 7 - - W 1021,0 26 0,0
21.09.2018 23:00:00 13,8 9,1 - 16 9 - - W 1021,3 30 0,0
21.09.2018 22:00:00 13,7 8,9 - 18 10 - - W 1021,2 40 0,0
21.09.2018 21:00:00 13,6 8,9 - 21 11 - - W 1021,1 35 0,0
21.09.2018 20:00:00 13,6 8,0 - 22 12 - - W 1020,4 35 0,0
21.09.2018 19:00:00 13,8 7,5 - 22 12 - - W 1019,9 35 0,0
21.09.2018 18:00:00 14,3 7,8 - 28 15 - - W 1019,4 10 0,0
21.09.2018 17:00:00 14,8 8,1 - 28 15 - - W 1019,1 10 0,0
21.09.2018 16:00:00 15,3 8,0 - 29 16 46 25 W 1018,4 20 0,0
21.09.2018 15:00:00 15,7 8,7 - 34 18 52 28 W 1018,2 25 0,0
21.09.2018 14:00:00 15,9 9,4 - 28 15 55 30 W 1017,7 10 0,0
21.09.2018 13:00:00 15,7 8,6 - 34 18 54 29 W 1016,9 10 0,0
21.09.2018 12:00:00 15,8 8,6 - 39 21 59 32 W 1016,3 10 0,0
21.09.2018 11:00:00 15,0 7,8 - 39 21 59 32 W 1015,5 10 0,0
21.09.2018 10:00:00 13,8 6,3 16,0 39 21 63 34 W 1014,7 10 0,0
21.09.2018 09:00:00 13,3 8,4 - 34 18 55 30 WNW 1013,8 10 0,0
21.09.2018 08:00:00 12,4 7,0 - 41 22 59 32 W 1012,9 10 0,0
21.09.2018 07:00:00 12,5 6,1 - 41 22 59 32 W 1011,9 30 0,0
21.09.2018 06:00:00 12,6 7,5 - 37 20 54 29 WNW 1010,9 27 0,0
21.09.2018 05:00:00 12,4 6,8 - 37 20 57 31 WNW 1010,3 30 0,0
21.09.2018 04:00:00 12,1 7,4 - 37 20 61 33 WNW 1009,7 35 0,2
21.09.2018 03:00:00 12,1 8,6 - 39 21 65 35 NW 1008,8 30 0,2
21.09.2018 02:00:00 12,0 9,3 - 42 23 65 35 WNW 1007,2 35 0,2
21.09.2018 01:00:00 12,9 10,3 - 44 24 85 46 WNW 1005,2 27 0,0
21.09.2018 00:00:00 14,1 10,6 - 55 30 80 43 W 1003,2 19 0,0
20.09.2018 23:00:00 14,0 11,5 - 44 24 67 36 W 1002,7 20 0,0
20.09.2018 22:00:00 14,1 11,6 - 54 29 76 41 W 1002,1 19 0,0
20.09.2018 21:00:00 16,3 15,9 - 52 28 78 42 SW 1000,4 2,1 1,6
20.09.2018 20:00:00 16,7 16,6 - 54 29 74 40 SSW 999,3 1,5 4,2
20.09.2018 19:00:00 16,9 16,7 - 54 29 76 41 SSW 1000,5 2,8 4,0
20.09.2018 18:00:00 16,8 16,5 - 63 34 76 41 SSW 1001,6 2,5 2,8
20.09.2018 17:00:00 17,1 16,4 - 50 27 65 35 SSW 1003,2 4,0 0,4
20.09.2018 16:00:00 17,1 16,2 - 44 24 63 34 SSW 1004,4 4,0 0,0
20.09.2018 15:00:00 17,4 16,3 - 44 24 68 37 SSW 1005,8 5 0,0
20.09.2018 14:00:00 17,4 16,2 - 46 25 61 33 SSW 1006,3 4,0 0,0
20.09.2018 13:00:00 17,2 16,1 - 46 25 63 34 SSW 1006,7 6 0,0
20.09.2018 12:00:00 17,1 16,3 - 44 24 61 33 SSW 1007,6 5 0,0
20.09.2018 11:00:00 16,8 16,3 - 52 28 65 35 SSW 1008,2 6 0,0
20.09.2018 10:00:00 16,2 16,0 17,2 48 26 55 30 SSW 1008,4 2,0 0,0
20.09.2018 09:00:00 16,4 16,1 - 39 21 50 27 SSW 1009,2 3,5 0,0
20.09.2018 08:00:00 16,5 16,1 - 39 21 54 29 SSW 1009,6 4,5 0,2
20.09.2018 07:00:00 16,4 15,9 - 42 23 52 28 SSW 1009,9 2,8 0,0
20.09.2018 06:00:00 16,6 15,8 - 39 21 50 27 SSW 1010,1 7 0,0
20.09.2018 05:00:00 16,7 16,0 - 39 21 52 28 SSW 1010,5 6 0,0
20.09.2018 04:00:00 16,6 15,7 - 41 22 55 30 SW 1011,1 6 0,0
20.09.2018 03:00:00 16,6 15,8 - 46 25 55 30 SW 1011,0 6 0,0
20.09.2018 02:00:00 16,5 15,7 - 44 24 55 30 SW 1011,5 6 0,0
20.09.2018 01:00:00 16,4 15,9 - 42 23 55 30 SSW 1011,8 6 0,2
20.09.2018 00:00:00 15,6 15,5 - 34 18 46 25 SSW 1012,5 5 0,2
19.09.2018 23:00:00 13,4 13,2 - 4 2 - - SSE 1013,3 2,6 0,4
19.09.2018 22:00:00 13,4 13,2 - 4 2 - - WSW 1013,8 2,3 0,4

tt = temperature
td = dewpoint
tt -20cm = temperature -20cm
ff = wind speed
fx = gusts
dd = wind direction
ppp = reduced air pressure
vv = visibility
rr = precipitation

Next stations